Weather History for Madrid Cuatro Vientos, Spain

Change the Weather History Date:

Sunday, November 4, 2012

  Actual Average Record
Temperature  
Mean Temperature 54 °F -  
Max Temperature 57 °F 59 °F 71 °F (2010)
Min Temperature 50 °F 43 °F 37 °F (2008)
Degree Days  
Heating Degree Days 11    
Growing Degree Days 4 (Base 50)    
Moisture  
Dew Point 46 °F    
Average Humidity 73    
Maximum Humidity 88    
Minimum Humidity 54    
Precipitation  
Precipitation 0.00 in - - ()
Sea Level Pressure  
Sea Level Pressure 29.73 in    
Wind  
Wind Speed 4 mph ()    
Max Wind Speed 14 mph    
Max Gust Speed -    
Visibility 4.9 miles    
Events Rain    
Averages and records for this station are not official NWS values.
T = Trace of Precipitation, MM = Missing Value Source: Averaged Metar Reports

Daily Weather History Graph

Daily Weather History Graph

Search for Another Location

Airport:

Trip Planner

Search our weather history database for the weather conditions in past years. The results will help you decide how hot, cold, wet, or windy it might be!

Date:

Astronomy

Nov. 04, 2012 Rise Set
Actual Time 7:48 AM CET 6:08 PM CET
Civil Twilight 7:20 AM CET 6:36 PM CET
Nautical Twilight 6:47 AM CET 7:09 PM CET
Astronomical Twilight 6:16 AM CET 7:40 PM CET
Moon 10:32 PM CET (11/4) 12:23 PM CET (11/4)
Length of Visible Light 11h 16m
Length of Day
10h 19m
Waning Gibbous, 74% of the Moon is Illuminated
Nov 4
Waning Gibbous
Nov 7
Last Quarter
Nov 13
New
Nov 20
First Quarter
Nov 28
Full

Hourly Weather History & Observations

Time (CET) Temp. Dew Point Humidity Pressure Visibility Wind Dir Wind Speed Gust Speed Precip Events Conditions
7:00 AM 55.4 °F 51.8 °F 88% 29.71 in 1.9 mi Variable 4.6 mph - N/A Rain Rain
7:30 AM 55.4 °F 50.0 °F 82% 29.68 in 3.7 mi Calm Calm - N/A Rain Light Rain
8:00 AM 55.4 °F 51.8 °F 88% 29.68 in 6.2 mi Variable 2.3 mph - N/A Rain Light Rain
8:30 AM 55.4 °F 51.8 °F 88% 29.68 in 1.9 mi Calm Calm - N/A Rain Rain
9:00 AM 55.4 °F 50.0 °F 82% 29.68 in 1.6 mi Calm Calm - N/A Rain Rain
9:30 AM 57.2 °F 51.8 °F 82% 29.71 in 1.6 mi Calm Calm - N/A Rain Rain
10:00 AM 57.2 °F 51.8 °F 82% 29.71 in 1.9 mi SSW 4.6 mph - N/A Rain Rain
10:30 AM 55.4 °F 50.0 °F 82% 29.71 in 1.9 mi NW 6.9 mph - N/A Rain Rain
11:00 AM 55.4 °F 50.0 °F 82% 29.71 in 1.9 mi NW 5.8 mph - N/A Rain Rain
11:30 AM 55.4 °F 50.0 °F 82% 29.71 in 6.2 mi NW 4.6 mph - N/A Rain Light Rain
12:00 PM 55.4 °F 44.6 °F 67% 29.71 in 6.2 mi Variable 2.3 mph - N/A Rain Light Rain
12:30 PM 55.4 °F 44.6 °F 67% 29.71 in 6.2 mi WNW 3.5 mph - N/A Rain Light Rain
1:00 PM 55.4 °F 44.6 °F 67% 29.71 in 6.2 mi Calm Calm - N/A Rain Light Rain
1:30 PM 53.6 °F 46.4 °F 77% 29.71 in 3.1 mi West 6.9 mph - N/A   Drizzle
2:00 PM 55.4 °F 48.2 °F 77% 29.71 in 5.0 mi WNW 3.5 mph - N/A   Light Drizzle
2:30 PM 55.4 °F 46.4 °F 72% 29.71 in 5.0 mi Calm Calm - N/A   Light Drizzle
3:00 PM 55.4 °F 46.4 °F 72% 29.71 in 3.7 mi Calm Calm - N/A   Light Drizzle
3:30 PM 55.4 °F 46.4 °F 72% 29.71 in 6.2 mi SW 4.6 mph - N/A   Overcast
4:00 PM 55.4 °F 44.6 °F 67% 29.74 in 6.2 mi Variable 2.3 mph - N/A   Overcast
4:30 PM 55.4 °F 41.0 °F 58% 29.71 in 6.2 mi Variable 2.3 mph - N/A   Overcast
5:00 PM 55.4 °F 41.0 °F 58% 29.74 in 6.2 mi WSW 8.1 mph - N/A   Overcast
5:30 PM 55.4 °F 39.2 °F 54% 29.74 in 6.2 mi West 9.2 mph - N/A   Overcast
6:00 PM 53.6 °F 42.8 °F 67% 29.74 in 6.2 mi SW 8.1 mph - N/A Rain Light Rain
6:30 PM 53.6 °F 44.6 °F 72% 29.77 in 6.2 mi SW 10.4 mph - N/A   Overcast
7:00 PM 51.8 °F 44.6 °F 76% 29.77 in 6.2 mi SW 9.2 mph - N/A   Overcast
7:30 PM 51.8 °F 46.4 °F 82% 29.80 in 6.2 mi SW 11.5 mph - N/A Rain Light Rain
8:00 PM 53.6 °F 46.4 °F 77% 29.80 in 6.2 mi WSW 9.2 mph - N/A Rain Light Rain
8:30 PM 51.8 °F 44.6 °F 76% 29.80 in 6.2 mi West 13.8 mph - N/A Rain Light Rain
9:00 PM 51.8 °F 42.8 °F 71% 29.80 in 6.2 mi West 6.9 mph - N/A   Overcast
9:30 PM 51.8 °F 35.6 °F 54% 29.83 in 6.2 mi West 8.1 mph - N/A   Overcast
10:00 PM 50.0 °F 33.8 °F 54% 29.83 in 6.2 mi WNW 6.9 mph - N/A   Mostly Cloudy